Regional Weather Roundup
Issued by NWS Wilmington, NC

Home | Current Version | Previous Version | Text Only | Print | Product List | Glossary On
Versions: 1 2 3 4 5 6 7 8 9 10 11 12 13 14 15 16 17 18 19 20 21 22 23 24 25 26 27 28 29 30 31 32 33 34 35 36 37 38 39 40 41 42 43 44 45 46 47 48 49 50
000
ASUS42 KILM 030010
RWRILM
RWRILM
REGIONAL HOURLY WEATHER ROUNDUP
NATIONAL WEATHER SERVICE WILMINGTON NC
800 PM EDT TUE SEP 02 2014

NOTE: "FAIR" INDICATES FEW OR NO CLOUDS BELOW 12,000 FEET WITH NO
SIGNIFICANT WEATHER AND/OR OBSTRUCTIONS TO VISIBILITY.

...............WFO WILMINGTON COUNTY WARNING AREA...............

......COASTAL NC AND SC COUNTIES......

CITY           SKY/WX    TMP DP  RH WIND       PRES   REMARKS
WILMINGTON     PTCLDY    81  74  79 S10       30.00F
SOUTHPORT      PTCLDY    81  75  81 S7        30.01F
N MYRTLE BEACH MOCLDY    83  76  79 S13       30.02R HX  91
MYRTLE BEACH   PTCLDY    84  75  74 S9        30.01R HX  92

......INLAND NC AND SC COUNTIES.......

CITY           SKY/WX    TMP DP  RH WIND       PRES   REMARKS
LUMBERTON      CLOUDY    81  74  79 SW7       29.99R
ELIZABETHTOWN  CLOUDY    83  74  74 S5        29.99S
WHITEVILLE     CLOUDY    82  75  80 S5        30.00R
FLORENCE       MOCLDY    83  74  74 SW9       30.00R
DARLINGTON     CLOUDY    81  70  69 SW8       30.02R

....................REST OF NORTH CAROLINA......................

.........EASTERN NC.........

CITY           SKY/WX    TMP DP  RH WIND       PRES   REMARKS
CAPE HATTERAS  CLEAR     80  77  90 SW15G23   30.01R
JACKSONVILLE   MOCLDY    81  73  78 S7        29.99F
MOREHEAD CITY  MOCLDY    82  77  84 SW16      30.02R HX  90
KENANSVILLE    CLOUDY    82  73  75 CALM      29.99F
NEW BERN       PTCLDY    82  75  79 S6        30.01R
ELIZABETH CITY CLEAR     85  77  77 S10       29.95R HX  95

.........CENTRAL NC.........

CITY           SKY/WX    TMP DP  RH WIND       PRES   REMARKS
RALEIGH DURHAM PTCLDY    80  67  64 S8        29.97F
ROCKY MOUNT    PTCLDY    79  69  71 CALM      29.98S
ROANOKE RAPIDS NOT AVBL
FAYETTEVILLE   CLOUDY    77  74  90 CALM      29.99R
HOFFMAN        MOCLDY    79  68  68 SW3       30.01R

.........WESTERN NC.........

CITY           SKY/WX    TMP DP  RH WIND       PRES   REMARKS
CHARLOTTE      MOCLDY    84  66  54 S18       30.01R
GREENSBORO     MOCLDY    81  68  64 SW12      30.00R
HICKORY        NOT AVBL
BOONE          NOT AVBL
ASHEVILLE      NOT AVBL

.....................REST OF SOUTH CAROLINA.....................

.........EASTERN SC.........

CITY           SKY/WX    TMP DP  RH WIND       PRES   REMARKS
CHARLESTON     CLOUDY    83  76  79 SW6       30.03R HX  91
BEAUFORT MCAS  CLOUDY    77  75  93 CALM      30.03R
HILTON HEAD    NOT AVBL

.........CENTRAL SC.........

CITY           SKY/WX    TMP DP  RH WIND       PRES   REMARKS
COLUMBIA       CLOUDY    77  73  87 S3        29.99F
ORANGEBURG     CLOUDY    76  72  87 CALM      30.04R
SUMTER SHAW    CLOUDY    79  70  73 W5        30.02R

.........WESTERN SC.........

CITY           SKY/WX    TMP DP  RH WIND       PRES   REMARKS
GREENVILLE     NOT AVBL
ROCK HILL      PTCLDY    82  70  66 S10G18    30.02R
ANDERSON       PTCLDY    85  71  63 CALM      29.99R HX  90
CLEMSON        NOT AVBL
GREENWOOD      LGT RAIN  79  71  76 S12       30.02R


...................COASTAL AND OFFSHORE REPORTS..................

................LOCAL PIERS AND NC RESERVE................


STATION/POSITION TIME  SKY/WX   TEMP    WIND        PRES    VSBY
                                AIR SEA DIR/SP/G
                 (UTC)          (F)     (DEG/KT/KT) (MB)    (MI)
JOHNY MRCER PIER 0000            83 85  220/ 12/ 15 1015.7S
NC RESRV MASNBRO 2300            84     210/  8     1016.0S
OCEAN CREST PIER 0000            83 86  180/ 14/ 16 1015.3S
SPRINGMAID  PIER 0000            83 85  190/ 16/ 18 1016.2R


................COASTAL AND OFFSHORE BUOYS................


STATION/POSITION TIME  SKY/WX   TEMP    WIND        PRES    VSBY
                                AIR SEA DIR/SP/G
                 (UTC)          (F)     (DEG/KT/KT) (MB)    (MI)
DIMNDSHOAL 41025 0000            81     210/ 17/ 21 1015.9R
WVE H/P(F/S)=  4/ 4 WND WVE H/P(F/S)=  3/ 4 SWL H/P/D(F/S/D)=  2/130/ 9

CAPE LOOKOUT     2300            82     220/ 12/ 15 1016.3R
ONSLOW BAY 41036 2300            82 82  210/ 16/ 19 1016.9R
5 WRITEBCH 41038 2300            80 83                N/A
MASONBORO  41110 0000               83                N/A
WVE H/P(F/S)=  3/12 WND WVE H/P(F/S)=  3/ 9 SWL H/P/D(F/S/D)=  2/ 90/12

WILM HARBR 41108 0000               84                N/A
WVE H/P(F/S)=  3/ 8 WND WVE H/P(F/S)=  3/ 8

27WRITEBCH 41037 NOT AVBL
FRYING PAN 41013 NOT AVBL
SUNST NRSH 41024 2300            84     220/ 14/ 16 1015.8F
CAPRS NRSH 41029 2300            83     230/ 12/ 14   N/A
EDISTO     41004 0000            82 84  200/ 10/ 12 1016.3F
WVE H/P(F/S)=  3/ 8 WND WVE H/P(F/S)=  2/ 4 SWL H/P/D(F/S/D)=  2/ 8



..........OFFSHORE BUOYS BEYOND 100 NM OFFSHORE...........
.....IN A TRIANGLE---HAT TO BERMUDA TO BAHAMAS TO HAT.....


STATION/POSITION TIME  SKY/WX   TEMP    WIND        PRES    VSBY
                                AIR SEA DIR/SP/G
                 (UTC)          (F)     (DEG/KT/KT) (MB)    (MI)
150E HAT   41001 NOT AVBL
W BERMUDA  41048 NOT AVBL
ATLANTIC S 41049 NOT AVBL
E BAHAMAS  41046 NOT AVBL
NE BAHAMAS 41047 NOT AVBL
120E CANVRL41010 0000            83 85  130/ 10/ 12 1017.4R
WVE H/P(F/S)=  4/11 WND WVE H/P(F/S)=  2/ 4 SWL H/P/D(F/S/D)=  3/ 30/11


END


USA.gov is the U.S. government's official web portal to all federal, state and local government web resources and services.